Location: Ch�ze
(42.9000°N, 0.0333°W)
Time: 22:48:40
(UTC+00:00)

H-2A R/B - Pass Details

Date: 24 January 2021
Orbit: 734 x 836 km, 98.2° (Epoch: 24 February)

Event Time Altitude Azimuth Distance (km) Brightness Sun altitude
Rises 19:24:13 0° 186° (S) 3,172 5.3 -25.8°
Reaches altitude 10° 19:26:37 10° 194° (SSW) 2,264 4.6 -26.2°
Maximum altitude 19:31:15 39° 263° (W) 1,141 3.3 -27.1°
Drops below altitude 10° 19:36:03 10° 332° (NNW) 2,336 4.8 -28.0°
Sets 19:38:34 0° 340° (NNW) 3,286 5.5 -28.4°
